This is the latest recevied weather packets stored in our database for station/object PA2JOK. If no packets are shown the sender has not sent any weather packets the latest 10 day(s).
| Time | Temp. | Humidity | Pressure | Rain* | Wind** | Luminosity | Snow |
|---|---|---|---|---|---|---|---|
| 1777615383 | 11.11° C | 48% | 1023.5 hPa | 0 mm | - | - | - |
| 1777614484 | 11.11° C | 47% | 1023.6 hPa | 0 mm | - | - | - |
| 1777613582 | 11.11° C | 48% | 1023.5 hPa | 0 mm | - | - | - |
| 1777612682 | 11.11° C | 48% | 1023.5 hPa | 0 mm | - | - | - |
| 1777611783 | 10.56° C | 49% | 1023.3 hPa | 0 mm | - | - | - |
| 1777610883 | 10° C | 51% | 1023.4 hPa | 0 mm | - | - | - |
| 1777609983 | 10° C | 53% | 1023.4 hPa | 0 mm | - | - | - |
| 1777609083 | 9.44° C | 53% | 1023.6 hPa | 0 mm | - | - | - |
| 1777608183 | 9.44° C | 52% | 1023.5 hPa | 0 mm | - | - | - |
| 1777607282 | 10° C | 51% | 1023.5 hPa | 0 mm | - | - | - |
| 1777606383 | 10° C | 49% | 1023.5 hPa | 0 mm | - | - | - |
| 1777605483 | 10.56° C | 49% | 1023.5 hPa | 0 mm | - | - | - |
| 1777603683 | 10.56° C | 47% | 1023.7 hPa | 0 mm | - | - | - |
| 1777602783 | 11.11° C | 47% | 1023.8 hPa | 0 mm | - | - | - |
| 1777601883 | 11.11° C | 47% | 1023.7 hPa | 0 mm | - | - | - |
| 1777600983 | 11.67° C | 45% | 1023.7 hPa | 0 mm | - | - | - |
| 1777600083 | 11.67° C | 44% | 1023.7 hPa | 0 mm | - | - | - |
| 1777599183 | 11.67° C | 43% | 1023.7 hPa | 0 mm | - | - | - |
| 1777598283 | 12.22° C | 43% | 1023.5 hPa | 0 mm | - | - | - |
| 1777597383 | 12.22° C | 42% | 1023.6 hPa | 0 mm | - | - | - |
| 1777596483 | 12.22° C | 42% | 1023.6 hPa | 0 mm | - | - | - |
| 1777595583 | 12.78° C | 42% | 1023.7 hPa | 0 mm | - | - | - |
| 1777594683 | 12.78° C | 41% | 1023.7 hPa | 0 mm | - | - | - |
| 1777593783 | 12.78° C | 41% | 1023.8 hPa | 0 mm | - | - | - |
| 1777592882 | 12.78° C | 42% | 1023.9 hPa | 0 mm | - | - | - |
* Rain latest hour (hover to see other rain measurements)
** Current wind speed in m/s (hover to see current wind gust speed)